Location: Gunnedah
(30.9923°S, 150.2369°E)
Time: 22:41:29
(UTC+10:00)

ISS - Visible Passes

Search period start: 12 August 2020 00:00
Search period end: 22 August 2020 00:00
Orbit: 418 x 420 km, 51.6° (Epoch: 12 August)

Date Brightness Start Highest point End Pass type
(mag) Time Alt. Az. Time Alt. Az. Time Alt. Az.
12 Aug -3.2 05:17:38 29° SSW 05:19:07 55° SE 05:22:26 10° ENE visible
13 Aug -1.5 04:32:29 25° ESE 04:32:29 25° ESE 04:34:30 10° ENE visible
13 Aug -2.0 06:05:40 10° W 06:08:05 18° NW 06:10:29 10° N visible
14 Aug -3.0 05:20:26 34° WNW 05:20:37 35° NW 05:23:43 10° NNE visible
15 Aug -1.2 04:35:29 18° NE 04:35:29 18° NE 04:36:28 10° NE visible
15 Aug -0.8 19:32:15 10° NNW 19:32:28 11° NNW 19:32:28 11° NNW visible
16 Aug -2.3 18:45:12 10° N 18:47:38 24° NE 18:47:38 24° NE visible
17 Aug -1.6 17:58:57 10° NNE 18:00:31 13° NE 18:02:06 10° E visible
17 Aug -1.7 19:33:46 10° WNW 19:35:44 28° W 19:35:44 28° W visible
18 Aug -3.8 18:45:57 10° NW 18:49:21 82° SW 18:50:44 33° SE visible
19 Aug -3.3 17:58:28 10° NNW 18:01:43 47° NE 18:05:02 10° SE visible
19 Aug -1.0 19:36:40 10° WSW 19:38:36 15° SW 19:38:36 15° SW visible
20 Aug -1.6 18:48:04 10° W 18:50:53 24° SW 18:53:21 12° SSE visible
21 Aug -2.6 17:59:54 10° WNW 18:03:08 41° SW 18:06:24 10° SSE visible
